Location: Acequia del Cap
(41.7000°N, 0.6167°E)
Time: 00:21:25
(UTC+00:00)

ADEOS II - Pass Details

Date: 07 August 2020
Orbit: 799 x 802 km, 98.5° (Epoch: 22 September)

Event Time Altitude Azimuth Distance (km) Brightness Sun altitude
Rises 02:19:26 0° 13° (NNE) 3,319 6.4 -24.0°
Reaches altitude 10° 02:21:47 10° 14° (NNE) 2,384 5.5 -23.8°
Maximum altitude 02:27:04 86° 103° (ESE) 807 2.0 -23.2°
Enters shadow 02:28:22 53° 189° (S) 980 2.2 -23.0°
